Check out our new BloomSky Weather System.

Active alerts

Houston, TX
  Details for Houston, TX Areal Flood Advisory


Thunder radar  blitzortung!


Rain radar more information rain snow radar


Visit our other weather sites:

Template documentation
and downloads

And another site



Weather Underground History page Text

Daily Summary for January 11, 2017 Units:  Metric    English   Both
« Previous Day
Next Day »
Daily Weekly Monthly Yearly Custom
  High: Low: Average:
Temperature: -17.8 °C 18.2 °C 21.8 °C
Dew Point: -17.8 °C 17.7 °C 18.8 °C
Humidity: Humidity % 61 % 84 %
Wind Speed: 0 km/h 1.6 km/h 11.3 km/h
Wind Gust: 0 km/h - -
Wind:- - SSE
Pressure: 0 hPa 1014.4 hPa -
Precipitation: 0 mm    
Historical Graphs
 
 
Tabular Data for January 11, 2017
Time Temperature Dew Point Pressure Wind Wind Speed Wind Gust Humidity Rainfall Rate (Hourly)
-17.8 °C -17.8 °C 0 hPa Calm     Humidity % 0 mm
00:00 19.9 °C 18.6 °C 1017.5 hPa SSE 3.2 km/h 16.1 km/h 92 % 0 mm
00:05 19.9 °C 18.7 °C 1017.5 hPa South 6.4 km/h 16.1 km/h 93 % 0 mm
00:10 19.9 °C 18.7 °C 1017.5 hPa WSW 8 km/h 14.5 km/h 93 % 0 mm
00:16 19.8 °C 18.6 °C 1017.5 hPa SSE 11.3 km/h 14.5 km/h 93 % 0 mm
00:21 19.8 °C 18.6 °C 1017.5 hPa SSE 4.8 km/h 14.5 km/h 93 % 0 mm
00:26 19.8 °C 18.6 °C 1017.5 hPa SSE 4.8 km/h 14.5 km/h 93 % 0 mm
00:31 19.8 °C 18.6 °C 1017.5 hPa SW 3.2 km/h 12.9 km/h 93 % 0 mm
00:36 19.7 °C 18.5 °C 1017.5 hPa SSE 9.7 km/h 12.9 km/h 93 % 0 mm
00:41 19.8 °C 18.6 °C 1017.5 hPa SSE 3.2 km/h 14.5 km/h 93 % 0 mm
00:46 19.7 °C 18.5 °C 1017.5 hPa SSE 8 km/h 14.5 km/h 93 % 0 mm
00:51 19.8 °C 18.6 °C 1017.5 hPa SSE 3.2 km/h 16.1 km/h 93 % 0 mm
00:56 19.7 °C 18.5 °C 1017.5 hPa SSW 6.4 km/h 16.1 km/h 93 % 0 mm
01:01 19.7 °C 18.5 °C 1017.2 hPa ESE 9.7 km/h 16.1 km/h 93 % 0 mm
01:06 19.7 °C 18.5 °C 1017.5 hPa SSW 6.4 km/h 16.1 km/h 93 % 0 mm
01:11 19.7 °C 18.5 °C 1017.5 hPa South 8 km/h 14.5 km/h 93 % 0 mm
01:16 19.7 °C 18.5 °C 1017.5 hPa SSW 8 km/h 16.1 km/h 93 % 0 mm
01:21 19.7 °C 18.5 °C 1017.5 hPa SSE 6.4 km/h 19.3 km/h 93 % 0 mm
01:26 19.7 °C 18.5 °C 1017.5 hPa SE 8 km/h 19.3 km/h 93 % 0 mm
01:31 19.6 °C 18.6 °C 1017.5 hPa SSW 6.4 km/h 19.3 km/h 94 % 0 mm
01:36 19.6 °C 18.6 °C 1017.5 hPa SE 8 km/h 16.1 km/h 94 % 0 mm
01:41 19.6 °C 18.6 °C 1017.5 hPa SSE 6.4 km/h 16.1 km/h 94 % 0 mm
01:46 19.5 °C 18.5 °C 1017.2 hPa SE 6.4 km/h 16.1 km/h 94 % 0 mm
01:51 19.4 °C 18.4 °C 1017.2 hPa South 6.4 km/h 12.9 km/h 94 % 0 mm
01:56 19.4 °C 18.4 °C 1017.2 hPa SSE 4.8 km/h 16.1 km/h 94 % 0 mm
02:01 19.3 °C 18.3 °C 1017.2 hPa South 8 km/h 16.1 km/h 94 % 0 mm
02:06 19.2 °C 18.2 °C 1017.2 hPa SSE 4.8 km/h 16.1 km/h 94 % 0 mm
02:11 19.2 °C 18.2 °C 1017.2 hPa South 3.2 km/h 9.7 km/h 94 % 0 mm
02:16 19.1 °C 18.1 °C 1017.2 hPa ESE 4.8 km/h 9.7 km/h 94 % 0 mm
02:21 18.9 °C 17.9 °C 1017.2 hPa SE 4.8 km/h 8 km/h 94 % 0 mm
02:26 18.8 °C 18 °C 1017.2 hPa SE 1.6 km/h 8 km/h 95 % 0 mm
02:31 18.7 °C 17.9 °C 1017.2 hPa South 3.2 km/h 6.4 km/h 95 % 0 mm
02:36 18.7 °C 17.9 °C 1017.2 hPa SSE 1.6 km/h 6.4 km/h 95 % 0 mm
02:41 18.6 °C 17.8 °C 1017.2 hPa SE 1.6 km/h 6.4 km/h 95 % 0 mm
02:46 18.6 °C 17.8 °C 1017.2 hPa SSE 8 km/h 8 km/h 95 % 0 mm
02:51 18.7 °C 17.9 °C 1017.2 hPa SE 3.2 km/h 8 km/h 95 % 0 mm
02:56 18.6 °C 17.9 °C 1017.2 hPa South 1.6 km/h 8 km/h 96 % 0 mm
03:01 18.7 °C 18 °C 1017.2 hPa SSE 3.2 km/h 8 km/h 96 % 0 mm
03:06 18.7 °C 18 °C 1017.2 hPa SSE 1.6 km/h 6.4 km/h 96 % 0 mm
03:11 18.7 °C 18 °C 1017.2 hPa SSE 3.2 km/h 6.4 km/h 96 % 0 mm
03:16 18.6 °C 17.9 °C 1017.2 hPa SE 3.2 km/h 8 km/h 96 % 0 mm
03:21 18.6 °C 17.9 °C 1017.2 hPa SE 1.6 km/h 8 km/h 96 % 0 mm
03:26 18.5 °C 17.8 °C 1017.2 hPa SSE 3.2 km/h 8 km/h 96 % 0 mm
03:31 18.5 °C 17.8 °C 1017.2 hPa SE 4.8 km/h 8 km/h 96 % 0 mm
03:36 18.5 °C 17.8 °C 1017.2 hPa SSE 4.8 km/h 6.4 km/h 96 % 0 mm
03:41 18.5 °C 17.8 °C 1017.2 hPa SSE 3.2 km/h 6.4 km/h 96 % 0 mm
03:46 18.4 °C 17.8 °C 1017.2 hPa SE 4.8 km/h 8 km/h 96 % 0 mm
03:51 18.4 °C 17.8 °C 1017.2 hPa SE 4.8 km/h 9.7 km/h 96 % 0 mm
03:56 18.4 °C 17.8 °C 1016.8 hPa SSE 4.8 km/h 9.7 km/h 96 % 0 mm
04:01 18.3 °C 17.8 °C 1016.8 hPa South 4.8 km/h 9.7 km/h 97 % 0 mm
04:06 18.3 °C 17.8 °C 1016.8 hPa SE 4.8 km/h 8 km/h 97 % 0 mm
04:11 18.3 °C 17.8 °C 1016.5 hPa SSE 4.8 km/h 8 km/h 97 % 0 mm
04:16 18.3 °C 17.8 °C 1016.5 hPa South 1.6 km/h 9.7 km/h 97 % 0 mm
04:21 18.2 °C 17.7 °C 1016.5 hPa SE 3.2 km/h 9.7 km/h 97 % 0 mm
04:26 18.2 °C 17.7 °C 1016.5 hPa WSW 4.8 km/h 9.7 km/h 97 % 0 mm
04:31 18.2 °C 17.7 °C 1016.5 hPa East 6.4 km/h 11.3 km/h 97 % 0 mm
04:36 18.3 °C 17.8 °C 1016.1 hPa SE 6.4 km/h 12.9 km/h 97 % 0 mm
04:41 18.3 °C 17.8 °C 1016.5 hPa SE 4.8 km/h 12.9 km/h 97 % 0 mm
04:46 18.3 °C 17.8 °C 1016.5 hPa South 6.4 km/h 12.9 km/h 97 % 0 mm
04:51 18.3 °C 17.8 °C 1016.5 hPa South 6.4 km/h 11.3 km/h 97 % 0 mm
04:56 18.3 °C 17.8 °C 1016.5 hPa ESE 6.4 km/h 11.3 km/h 97 % 0 mm
05:01 18.3 °C 17.8 °C 1016.1 hPa ESE 8 km/h 11.3 km/h 97 % 0 mm
05:06 18.3 °C 17.8 °C 1016.1 hPa ESE 8 km/h 12.9 km/h 97 % 0 mm
05:11 18.3 °C 17.8 °C 1016.1 hPa SSE 4.8 km/h 12.9 km/h 97 % 0 mm
05:16 18.3 °C 17.8 °C 1016.1 hPa South 3.2 km/h 12.9 km/h 97 % 0 mm
05:22 18.3 °C 17.8 °C 1016.1 hPa SSE 4.8 km/h 11.3 km/h 97 % 0 mm
05:27 18.3 °C 17.8 °C 1016.1 hPa SSE 8 km/h 11.3 km/h 97 % 0 mm
05:32 18.3 °C 17.8 °C 1016.1 hPa SSE 6.4 km/h 9.7 km/h 97 % 0 mm
05:37 18.3 °C 18 °C 1016.1 hPa SE 6.4 km/h 9.7 km/h 98 % 0 mm
05:42 18.3 °C 18 °C 1016.1 hPa SE 6.4 km/h 11.3 km/h 98 % 0 mm
05:47 18.3 °C 18 °C 1016.1 hPa South 4.8 km/h 11.3 km/h 98 % 0 mm
05:52 18.3 °C 18 °C 1016.1 hPa SE 4.8 km/h 14.5 km/h 98 % 0 mm
05:57 18.3 °C 18 °C 1016.1 hPa SE 9.7 km/h 14.5 km/h 98 % 0 mm
06:02 18.4 °C 18.1 °C 1016.1 hPa South 9.7 km/h 14.5 km/h 98 % 0 mm
06:07 18.4 °C 18.1 °C 1016.1 hPa SSW 6.4 km/h 16.1 km/h 98 % 0 mm
06:12 18.4 °C 18.1 °C 1016.1 hPa South 8 km/h 16.1 km/h 98 % 0 mm
06:17 18.4 °C 18.1 °C 1016.1 hPa SSW 6.4 km/h 16.1 km/h 98 % 0 mm
06:22 18.4 °C 17.9 °C 1016.1 hPa SE 6.4 km/h 12.9 km/h 97 % 0 mm
06:27 18.4 °C 18.1 °C 1016.1 hPa SSE 6.4 km/h 12.9 km/h 98 % 0 mm
06:32 18.5 °C 18.2 °C 1016.1 hPa SE 8 km/h 12.9 km/h 98 % 0 mm
06:37 18.6 °C 18.3 °C 1016.1 hPa SSE 6.4 km/h 12.9 km/h 98 % 0 mm
06:42 18.6 °C 18.3 °C 1016.1 hPa South 4.8 km/h 11.3 km/h 98 % 0 mm
06:47 18.7 °C 18.4 °C 1016.1 hPa South 4.8 km/h 11.3 km/h 98 % 0 mm
06:52 18.7 °C 18.2 °C 1016.5 hPa SSE 8 km/h 12.9 km/h 97 % 0 mm
06:57 18.8 °C 18.3 °C 1016.5 hPa SE 4.8 km/h 12.9 km/h 97 % 0 mm
07:02 18.8 °C 18.3 °C 1016.1 hPa South 11.3 km/h 12.9 km/h 97 % 0 mm
07:07 18.8 °C 18.3 °C 1016.5 hPa SSE 4.8 km/h 14.5 km/h 97 % 0 mm
07:12 18.9 °C 18.4 °C 1016.5 hPa SW 9.7 km/h 14.5 km/h 97 % 0 mm
07:17 19 °C 18.5 °C 1016.5 hPa SSE 11.3 km/h 14.5 km/h 97 % 0 mm
07:22 19.1 °C 18.4 °C 1016.5 hPa South 9.7 km/h 16.1 km/h 96 % 0 mm
07:27 19.2 °C 18.5 °C 1016.5 hPa South 9.7 km/h 16.1 km/h 96 % 0 mm
07:32 19.3 °C 18.6 °C 1016.5 hPa SSE 8 km/h 20.9 km/h 96 % 0 mm
07:37 19.4 °C 18.7 °C 1016.8 hPa South 12.9 km/h 20.9 km/h 96 % 0 mm
07:42 19.4 °C 18.6 °C 1016.8 hPa SE 17.7 km/h 20.9 km/h 95 % 0 mm
07:47 19.6 °C 18.8 °C 1016.8 hPa ESE 12.9 km/h 20.9 km/h 95 % 0 mm
07:52 19.7 °C 18.9 °C 1016.8 hPa SE 8 km/h 20.9 km/h 95 % 0 mm
07:57 19.7 °C 18.7 °C 1016.8 hPa ESE 14.5 km/h 20.9 km/h 94 % 0 mm
08:02 19.8 °C 18.8 °C 1016.8 hPa SSE 6.4 km/h 19.3 km/h 94 % 0 mm
08:07 19.9 °C 18.9 °C 1016.8 hPa SE 12.9 km/h 19.3 km/h 94 % 0 mm
08:12 20.1 °C 18.9 °C 1016.8 hPa South 12.9 km/h 19.3 km/h 93 % 0 mm
08:17 20.2 °C 19 °C 1017.2 hPa SE 12.9 km/h 17.7 km/h 93 % 0 mm
08:22 20.3 °C 19.1 °C 1017.2 hPa SE 14.5 km/h 20.9 km/h 93 % 0 mm
08:27 20.4 °C 19.1 °C 1017.2 hPa SSE 8 km/h 20.9 km/h 92 % 0 mm
08:32 20.6 °C 19.3 °C 1017.2 hPa SSE 6.4 km/h 20.9 km/h 92 % 0 mm
08:37 20.8 °C 19.5 °C 1017.2 hPa South 11.3 km/h 20.9 km/h 92 % 0 mm
08:42 21 °C 19.5 °C 1017.2 hPa SSE 11.3 km/h 22.5 km/h 91 % 0 mm
08:47 21.1 °C 19.4 °C 1017.2 hPa SSE 17.7 km/h 22.5 km/h 90 % 0 mm
08:52 21.3 °C 19.4 °C 1017.2 hPa SSE 9.7 km/h 22.5 km/h 89 % 0 mm
08:58 21.5 °C 19.6 °C 1017.2 hPa SE 6.4 km/h 25.7 km/h 89 % 0 mm
09:03 21.7 °C 19.6 °C 1017.2 hPa South 19.3 km/h 25.7 km/h 88 % 0 mm
09:07 21.8 °C 19.7 °C 1017.2 hPa SW 12.9 km/h 25.7 km/h 88 % 0 mm
09:13 22 °C 19.9 °C 1017.5 hPa South 20.9 km/h 24.1 km/h 88 % 0 mm
09:18 22.2 °C 19.9 °C 1017.5 hPa SSE 11.3 km/h 24.1 km/h 87 % 0 mm
09:23 22.2 °C 19.7 °C 1017.5 hPa South 17.7 km/h 29 km/h 86 % 0 mm
09:28 22.1 °C 19.6 °C 1017.5 hPa SSE 11.3 km/h 29 km/h 86 % 0 mm
09:33 22.2 °C 19.9 °C 1017.5 hPa SSE 11.3 km/h 29 km/h 87 % 0 mm
09:38 22.3 °C 19.8 °C 1017.5 hPa SSW 19.3 km/h 22.5 km/h 86 % 0 mm
09:43 22.4 °C 19.9 °C 1017.5 hPa SSE 17.7 km/h 24.1 km/h 86 % 0 mm
09:48 22.4 °C 19.9 °C 1017.8 hPa SSE 29 km/h 29 km/h 86 % 0 mm
09:53 22.5 °C 19.9 °C 1017.8 hPa South 19.3 km/h 29 km/h 85 % 0 mm
09:58 22.5 °C 19.9 °C 1017.5 hPa South 17.7 km/h 30.6 km/h 85 % 0 mm
10:03 22.5 °C 19.9 °C 1017.8 hPa SSE 14.5 km/h 30.6 km/h 85 % 0 mm
10:08 22.6 °C 19.9 °C 1017.8 hPa SE 16.1 km/h 30.6 km/h 85 % 0 mm
10:13 22.7 °C 19.9 °C 1017.8 hPa SSE 22.5 km/h 35.4 km/h 84 % 0 mm
10:15 22.8 °C 20 °C 1017.8 hPa SE 19.3 km/h 35.4 km/h 84 % 0 mm
10:20 22.9 °C 19.9 °C 1017.8 hPa ESE 19.3 km/h 35.4 km/h 83 % 0 mm
10:25 22.9 °C 19.9 °C 1017.8 hPa South 14.5 km/h 35.4 km/h 83 % 0 mm
10:30 23.1 °C 19.9 °C 1017.8 hPa SSW 17.7 km/h 33.8 km/h 82 % 0 mm
10:35 23.2 °C 20 °C 1017.5 hPa SE 9.7 km/h 43.5 km/h 82 % 0 mm
10:40 23.3 °C 19.7 °C 1017.8 hPa South 8 km/h 43.5 km/h 80 % 0 mm
10:45 23.5 °C 19.8 °C 1017.8 hPa South 11.3 km/h 30.6 km/h 80 % 0 mm
10:50 23.6 °C 19.9 °C 1017.8 hPa South 9.7 km/h 30.6 km/h 80 % 0 mm
10:55 24 °C 19.9 °C 1017.5 hPa SE 22.5 km/h 30.6 km/h 78 % 0 mm
11:00 24 °C 19.7 °C 1017.5 hPa SE 14.5 km/h 33.8 km/h 77 % 0 mm
11:05 24.2 °C 19.9 °C 1017.5 hPa SSE 14.5 km/h 33.8 km/h 77 % 0 mm
11:10 24.1 °C 19.6 °C 1017.5 hPa SE 12.9 km/h 33.8 km/h 76 % 0 mm
11:15 23.8 °C 19.5 °C 1017.5 hPa South 11.3 km/h 33.8 km/h 77 % 0 mm
11:20 23.8 °C 19.5 °C 1017.5 hPa South 4.8 km/h 33.8 km/h 77 % 0 mm
11:25 23.9 °C 19.6 °C 1017.5 hPa SSE 9.7 km/h 25.7 km/h 77 % 0 mm
11:30 24 °C 19.5 °C 1017.2 hPa South 14.5 km/h 24.1 km/h 76 % 0 mm
11:35 24 °C 19.1 °C 1017.2 hPa SSE 8 km/h 25.7 km/h 74 % 0 mm
11:40 24.5 °C 19.1 °C 1017.2 hPa SW 20.9 km/h 25.7 km/h 72 % 0 mm
11:45 24.8 °C 19.2 °C 1017.2 hPa South 12.9 km/h 35.4 km/h 71 % 0 mm
11:50 24.7 °C 18.9 °C 1017.2 hPa South 27.4 km/h 35.4 km/h 70 % 0 mm
11:55 24.7 °C 19.1 °C 1016.8 hPa South 14.5 km/h 35.4 km/h 71 % 0 mm
12:00 24.6 °C 19 °C 1016.8 hPa South 3.2 km/h 30.6 km/h 71 % 0 mm
12:05 24.6 °C 18.8 °C 1016.8 hPa SSE 11.3 km/h 30.6 km/h 70 % 0 mm
12:10 24.9 °C 19 °C 1016.5 hPa SSE 14.5 km/h 27.4 km/h 70 % 0 mm
12:15 25.1 °C 18.8 °C 1016.5 hPa WSW 20.9 km/h 25.7 km/h 68 % 0 mm
12:20 24.8 °C 18.7 °C 1016.5 hPa SSW 11.3 km/h 33.8 km/h 69 % 0 mm
12:25 24.8 °C 19 °C 1016.1 hPa SSW 19.3 km/h 33.8 km/h 70 % 0 mm
12:30 25.2 °C 18.9 °C 1016.1 hPa SW 12.9 km/h 33.8 km/h 68 % 0 mm
12:35 25.3 °C 19 °C 1016.1 hPa SE 22.5 km/h 32.2 km/h 68 % 0 mm
12:40 25.3 °C 18.5 °C 1015.8 hPa SE 22.5 km/h 32.2 km/h 66 % 0 mm
12:45 25.3 °C 18.2 °C 1015.8 hPa SW 22.5 km/h 33.8 km/h 65 % 0 mm
12:50 25.2 °C 18.2 °C 1015.8 hPa SSW 24.1 km/h 33.8 km/h 65 % 0 mm
12:55 25.4 °C 18.3 °C 1015.5 hPa ESE 16.1 km/h 33.8 km/h 65 % 0 mm
13:00 25.6 °C 18.5 °C 1015.5 hPa SSE 12.9 km/h 33.8 km/h 65 % 0 mm
13:05 25.3 °C 18.2 °C 1015.5 hPa SSE 11.3 km/h 30.6 km/h 65 % 0 mm
13:10 25.1 °C 18.3 °C 1015.5 hPa SSW 11.3 km/h 30.6 km/h 66 % 0 mm
13:15 25.3 °C 18.5 °C 1015.5 hPa SW 24.1 km/h 32.2 km/h 66 % 0 mm
13:20 25.4 °C 18.6 °C 1015.5 hPa SSW 11.3 km/h 37 km/h 66 % 0 mm
13:25 25.6 °C 18.8 °C 1015.1 hPa SSW 16.1 km/h 37 km/h 66 % 0 mm
13:30 25.4 °C 18.3 °C 1015.1 hPa South 17.7 km/h 37 km/h 65 % 0 mm
13:35 25.3 °C 18.2 °C 1015.1 hPa SSE 17.7 km/h 30.6 km/h 65 % 0 mm
13:40 25.3 °C 18.2 °C 1015.1 hPa SW 9.7 km/h 30.6 km/h 65 % 0 mm
13:45 25.1 °C 18.3 °C 1015.1 hPa ESE 17.7 km/h 30.6 km/h 66 % 0 mm
13:50 24.9 °C 18.1 °C 1014.8 hPa South 19.3 km/h 32.2 km/h 66 % 0 mm
13:56 25.3 °C 18.5 °C 1014.8 hPa SSW 12.9 km/h 32.2 km/h 66 % 0 mm
14:01 25.6 °C 18.5 °C 1014.8 hPa SSW 6.4 km/h 32.2 km/h 65 % 0 mm
14:06 25.8 °C 18.7 °C 1014.8 hPa SSE 16.1 km/h 30.6 km/h 65 % 0 mm
14:11 26 °C 18.7 °C 1014.8 hPa SE 19.3 km/h 30.6 km/h 64 % 0 mm
14:16 25.9 °C 18.3 °C 1014.4 hPa SE 20.9 km/h 33.8 km/h 63 % 0 mm
14:21 25.6 °C 18.3 °C 1014.4 hPa SE 22.5 km/h 33.8 km/h 64 % 0 mm
14:26 25.6 °C 18.3 °C 1014.4 hPa South 19.3 km/h 33.8 km/h 64 % 0 mm
14:31 25.6 °C 18.3 °C 1014.4 hPa SSE 12.9 km/h 32.2 km/h 64 % 0 mm
14:36 25.5 °C 18.2 °C 1014.4 hPa ESE 17.7 km/h 30.6 km/h 64 % 0 mm
14:41 25.7 °C 18.4 °C 1014.4 hPa SSE 25.7 km/h 25.7 km/h 64 % 0 mm
14:46 25.7 °C 18.1 °C 1014.4 hPa SSE 17.7 km/h 27.4 km/h 63 % 0 mm
14:51 25.7 °C 17.9 °C 1014.4 hPa SSW 17.7 km/h 27.4 km/h 62 % 0 mm
14:56 25.5 °C 17.9 °C 1014.4 hPa South 16.1 km/h 35.4 km/h 63 % 0 mm
15:01 25.5 °C 17.9 °C 1014.8 hPa SSE 16.1 km/h 35.4 km/h 63 % 0 mm
15:06 25.4 °C 17.8 °C 1014.8 hPa SSE 11.3 km/h 35.4 km/h 63 % 0 mm
15:11 25.4 °C 17.8 °C 1014.8 hPa South 8 km/h 32.2 km/h 63 % 0 mm
15:16 25.4 °C 17.8 °C 1014.4 hPa SSE 11.3 km/h 32.2 km/h 63 % 0 mm
15:21 25.4 °C 18.1 °C 1014.8 hPa South 17.7 km/h 32.2 km/h 64 % 0 mm
15:26 25.6 °C 17.8 °C 1014.4 hPa SE 25.7 km/h 30.6 km/h 62 % 0 mm
15:31 25.6 °C 17.8 °C 1014.8 hPa SSE 16.1 km/h 30.6 km/h 62 % 0 mm
15:36 25.7 °C 17.9 °C 1014.8 hPa SE 16.1 km/h 30.6 km/h 62 % 0 mm
15:41 26 °C 18.2 °C 1014.4 hPa SE 16.1 km/h 29 km/h 62 % 0 mm
15:46 26.1 °C 18 °C 1014.4 hPa South 12.9 km/h 29 km/h 61 % 0 mm
15:51 25.9 °C 18.1 °C 1014.8 hPa SW 19.3 km/h 27.4 km/h 62 % 0 mm
15:56 25.8 °C 18 °C 1014.8 hPa SW 12.9 km/h 27.4 km/h 62 % 0 mm
16:01 25.5 °C 17.9 °C 1014.8 hPa South 20.9 km/h 27.4 km/h 63 % 0 mm
16:06 25.3 °C 18 °C 1014.8 hPa SSE 11.3 km/h 27.4 km/h 64 % 0 mm
16:11 25.4 °C 18.1 °C 1014.8 hPa South 8 km/h 25.7 km/h 64 % 0 mm
16:16 25.4 °C 18.1 °C 1014.4 hPa SW 12.9 km/h 25.7 km/h 64 % 0 mm
16:21 25.3 °C 18.2 °C 1014.4 hPa South 16.1 km/h 33.8 km/h 65 % 0 mm
16:26 25.2 °C 18.2 °C 1014.4 hPa SSE 17.7 km/h 33.8 km/h 65 % 0 mm
16:31 25.1 °C 18.3 °C 1014.4 hPa SW 17.7 km/h 33.8 km/h 66 % 0 mm
16:36 25 °C 18.2 °C 1014.4 hPa SSW 11.3 km/h 27.4 km/h 66 % 0 mm
16:41 24.9 °C 18.3 °C 1014.4 hPa SSE 9.7 km/h 33.8 km/h 67 % 0 mm
16:46 24.9 °C 18.3 °C 1014.4 hPa East 25.7 km/h 33.8 km/h 67 % 0 mm
16:51 24.8 °C 18.3 °C 1014.4 hPa SW 16.1 km/h 33.8 km/h 67 % 0 mm
16:56 24.7 °C 18.4 °C 1014.4 hPa SE 11.3 km/h 30.6 km/h 68 % 0 mm
17:01 24.6 °C 18.5 °C 1014.4 hPa SSW 9.7 km/h 30.6 km/h 69 % 0 mm
17:06 24.6 °C 18.5 °C 1014.4 hPa SW 19.3 km/h 30.6 km/h 69 % 0 mm
17:11 24.5 °C 18.7 °C 1014.4 hPa South 14.5 km/h 29 km/h 70 % 0 mm
17:16 24.4 °C 18.8 °C 1014.4 hPa South 8 km/h 29 km/h 71 % 0 mm
17:21 24.3 °C 18.7 °C 1014.4 hPa SSE 17.7 km/h 25.7 km/h 71 % 0 mm
17:26 24.2 °C 18.8 °C 1014.4 hPa South 9.7 km/h 24.1 km/h 72 % 0 mm
17:31 24.1 °C 19 °C 1014.4 hPa SSW 12.9 km/h 24.1 km/h 73 % 0 mm
17:37 23.9 °C 19 °C 1014.4 hPa South 8 km/h 24.1 km/h 74 % 0 mm
17:42 23.8 °C 19.1 °C 1014.4 hPa SSW 11.3 km/h 19.3 km/h 75 % 0 mm
17:47 23.8 °C 19.1 °C 1014.4 hPa SSE 16.1 km/h 19.3 km/h 75 % 0 mm
17:52 23.7 °C 19 °C 1014.4 hPa SE 14.5 km/h 27.4 km/h 75 % 0 mm
17:57 23.6 °C 19.1 °C 1014.4 hPa SSE 8 km/h 27.4 km/h 76 % 0 mm
18:02 23.5 °C 19.2 °C 1014.4 hPa South 16.1 km/h 27.4 km/h 77 % 0 mm
18:07 23.4 °C 19.1 °C 1014.4 hPa SE 9.7 km/h 29 km/h 77 % 0 mm
18:12 23.3 °C 19.2 °C 1014.4 hPa SE 9.7 km/h 29 km/h 78 % 0 mm
18:17 23.2 °C 19.1 °C 1014.4 hPa South 8 km/h 29 km/h 78 % 0 mm
18:22 23.2 °C 19.4 °C 1014.4 hPa SE 16.1 km/h 27.4 km/h 79 % 0 mm
18:27 23.1 °C 19.3 °C 1014.4 hPa SE 20.9 km/h 20.9 km/h 79 % 0 mm
18:32 23.1 °C 19.3 °C 1014.4 hPa South 17.7 km/h 27.4 km/h 79 % 0 mm
18:37 23.1 °C 19.5 °C 1014.4 hPa SSE 8 km/h 27.4 km/h 80 % 0 mm
18:42 22.9 °C 19.3 °C 1014.4 hPa SSE 9.7 km/h 27.4 km/h 80 % 0 mm
18:47 22.9 °C 19.5 °C 1014.4 hPa SSW 14.5 km/h 22.5 km/h 81 % 0 mm
18:52 22.9 °C 19.5 °C 1014.4 hPa SSE 16.1 km/h 22.5 km/h 81 % 0 mm
18:57 22.8 °C 19.4 °C 1014.4 hPa South 11.3 km/h 22.5 km/h 81 % 0 mm
19:02 22.8 °C 19.6 °C 1014.4 hPa ESE 12.9 km/h 22.5 km/h 82 % 0 mm
19:07 22.8 °C 19.6 °C 1014.4 hPa SE 6.4 km/h 22.5 km/h 82 % 0 mm
19:12 22.7 °C 19.7 °C 1014.4 hPa ESE 11.3 km/h 22.5 km/h 83 % 0 mm
19:17 22.7 °C 19.7 °C 1014.4 hPa ESE 11.3 km/h 22.5 km/h 83 % 0 mm
19:22 22.7 °C 19.7 °C 1014.4 hPa SE 11.3 km/h 19.3 km/h 83 % 0 mm
19:27 22.7 °C 19.9 °C 1014.8 hPa SSE 11.3 km/h 24.1 km/h 84 % 0 mm
19:32 22.7 °C 19.9 °C 1014.8 hPa SSE 19.3 km/h 25.7 km/h 84 % 0 mm
19:37 22.6 °C 19.8 °C 1014.8 hPa South 9.7 km/h 29 km/h 84 % 0 mm
19:42 22.6 °C 19.9 °C 1014.8 hPa South 14.5 km/h 29 km/h 85 % 0 mm
19:47 22.6 °C 19.9 °C 1014.8 hPa SE 14.5 km/h 29 km/h 85 % 0 mm
19:52 22.5 °C 19.9 °C 1014.8 hPa SE 14.5 km/h 25.7 km/h 85 % 0 mm
19:57 22.4 °C 19.9 °C 1014.8 hPa SSE 12.9 km/h 25.7 km/h 86 % 0 mm
20:02 22.4 °C 19.9 °C 1014.8 hPa SE 14.5 km/h 25.7 km/h 86 % 0 mm
20:07 22.4 °C 19.9 °C 1014.8 hPa ESE 11.3 km/h 20.9 km/h 86 % 0 mm
20:12 22.3 °C 20 °C 1014.8 hPa SE 11.3 km/h 29 km/h 87 % 0 mm
20:17 22.3 °C 20 °C 1014.8 hPa South 9.7 km/h 29 km/h 87 % 0 mm
20:22 22.3 °C 20 °C 1015.1 hPa SSE 17.7 km/h 29 km/h 87 % 0 mm
20:27 22.3 °C 20 °C 1015.1 hPa SSW 17.7 km/h 25.7 km/h 87 % 0 mm
20:32 22.2 °C 19.9 °C 1015.1 hPa SE 24.1 km/h 24.1 km/h 87 % 0 mm
20:37 22.2 °C 20.1 °C 1015.1 hPa SE 9.7 km/h 27.4 km/h 88 % 0 mm
20:42 22.2 °C 20.1 °C 1015.1 hPa SSE 16.1 km/h 27.4 km/h 88 % 0 mm
20:47 22.2 °C 20.1 °C 1015.1 hPa SE 19.3 km/h 32.2 km/h 88 % 0 mm
20:52 22.1 °C 20 °C 1015.1 hPa South 11.3 km/h 32.2 km/h 88 % 0 mm
20:57 22.1 °C 20.2 °C 1015.1 hPa South 16.1 km/h 32.2 km/h 89 % 0 mm
21:02 22 °C 20.1 °C 1015.1 hPa SE 11.3 km/h 27.4 km/h 89 % 0 mm
21:07 22 °C 20.1 °C 1015.5 hPa SSE 12.9 km/h 25.7 km/h 89 % 0 mm
21:12 21.9 °C 20 °C 1015.5 hPa South 16.1 km/h 27.4 km/h 89 % 0 mm
21:17 21.9 °C 20 °C 1015.5 hPa South 12.9 km/h 27.4 km/h 89 % 0 mm
21:22 21.9 °C 20 °C 1015.5 hPa SSE 9.7 km/h 27.4 km/h 89 % 0 mm
21:28 21.9 °C 20.2 °C 1015.5 hPa SSW 16.1 km/h 20.9 km/h 90 % 0 mm
21:33 21.9 °C 20.2 °C 1015.5 hPa SSE 14.5 km/h 20.9 km/h 90 % 0 mm
21:38 21.9 °C 20.2 °C 1015.8 hPa SE 16.1 km/h 20.9 km/h 90 % 0 mm
21:48 21.8 °C 20.1 °C 1015.8 hPa ESE 8 km/h 20.9 km/h 90 % 0 mm
21:53 21.8 °C 20.1 °C 1016.1 hPa SSE 9.7 km/h 20.9 km/h 90 % 0 mm
21:58 21.8 °C 20.1 °C 1016.1 hPa SSW 11.3 km/h 20.9 km/h 90 % 0 mm
22:03 21.8 °C 20.1 °C 1016.1 hPa South 4.8 km/h 22.5 km/h 90 % 0 mm
22:08 21.8 °C 20.1 °C 1016.1 hPa East 8 km/h 22.5 km/h 90 % 0 mm
22:13 21.8 °C 20.1 °C 1016.1 hPa SSE 6.4 km/h 22.5 km/h 90 % 0 mm
22:18 21.8 °C 20.1 °C 1016.1 hPa South 4.8 km/h 17.7 km/h 90 % 0 mm
22:23 21.8 °C 20.1 °C 1016.1 hPa SSE 14.5 km/h 17.7 km/h 90 % 0 mm
22:28 21.8 °C 20.1 °C 1016.1 hPa SE 4.8 km/h 17.7 km/h 90 % 0 mm
22:30 21.8 °C 20.1 °C 1016.1 hPa SSW 9.7 km/h 17.7 km/h 90 % 0 mm
22:35 21.8 °C 20.1 °C 1016.1 hPa SSE 8 km/h 17.7 km/h 90 % 0 mm
22:40 21.8 °C 20.1 °C 1016.1 hPa South 6.4 km/h 17.7 km/h 90 % 0 mm
22:45 21.8 °C 20.1 °C 1016.1 hPa SSE 6.4 km/h 17.7 km/h 90 % 0 mm
22:50 21.7 °C 20 °C 1016.1 hPa SSE 4.8 km/h 17.7 km/h 90 % 0 mm
22:56 21.7 °C 20 °C 1016.1 hPa SSE 8 km/h 17.7 km/h 90 % 0 mm
23:01 21.7 °C 20 °C 1016.1 hPa South 8 km/h 14.5 km/h 90 % 0 mm
23:06 21.7 °C 20 °C 1016.1 hPa SSW 14.5 km/h 16.1 km/h 90 % 0 mm
23:11 21.7 °C 20 °C 1016.1 hPa SSE 8 km/h 17.7 km/h 90 % 0 mm
23:16 21.7 °C 20 °C 1016.1 hPa SSW 11.3 km/h 20.9 km/h 90 % 0 mm
23:21 21.7 °C 20 °C 1016.1 hPa SSW 16.1 km/h 20.9 km/h 90 % 0 mm
23:26 21.8 °C 20.1 °C 1016.1 hPa South 8 km/h 22.5 km/h 90 % 0 mm
23:31 21.8 °C 20.1 °C 1016.1 hPa SE 16.1 km/h 22.5 km/h 90 % 0 mm
23:36 21.7 °C 20 °C 1016.1 hPa SE 12.9 km/h 22.5 km/h 90 % 0 mm
23:42 21.7 °C 20 °C 1016.1 hPa SW 9.7 km/h 20.9 km/h 90 % 0 mm
23:47 21.6 °C 19.9 °C 1016.1 hPa SE 16.1 km/h 19.3 km/h 90 % 0 mm
23:52 21.6 °C 19.9 °C 1016.1 hPa SSE 8 km/h 20.9 km/h 90 % 0 mm
23:57 21.6 °C 19.9 °C 1016.1 hPa SSW 9.7 km/h 20.9 km/h 90 % 0 mm
Spring, Texas: Villages of Bridgestone
Compliments of Weather Underground - 2.75 mb

Script developed by  Jim McMurry - jmcmurry@mwt.net Adapted for the template by  Wim van der Kuil - Leuven-Template.eu

You find our weather info also at:

UK Metoffice

WeatherCloud

Weather Underground

Mid-South Weather Network

AWEKAS

Citizen Weather Observer Program (CWOP)

HAMweather, WeatherForYou, PWS Weather

Equipment we use:

Weather-station
Davis Vantage Vue

Weather-program
Meteohub

Weather-server
Debian 7.9 x86 (Guest)

Provider
DreamHost

Davis Vantage Vue

Meteohub

Debian 7.9 x86 (Guest)

DreamHost